Time,TemperatureF,DewpointF,PressureIn,WindDirection,WindDirectionDegrees,WindSpeedMPH,WindSpeedGustMPH,Humidity,HourlyPrecipIn,Conditions,Clouds,dailyrainin,SoftwareType,DateUTC
2013-02-23 00:00:00,31.0,24.0,30.28,SW,222,0.0,1.0,76,0.00,,,0.00,weatherlink.com 1.10,2013-02-23 05:00:00,
2013-02-23 00:05:00,30.5,24.2,30.28,SW,222,0.0,0.0,77,0.00,,CLR,0.00,VWS V14.01,2013-02-23 05:05:00,
2013-02-23 00:10:00,30.2,23.9,30.28,SW,222,0.0,0.0,77,0.00,,CLR,0.00,VWS V14.01,2013-02-23 05:10:00,
2013-02-23 00:15:00,29.8,24.0,30.27,SW,222,0.0,0.0,78,0.00,,,0.00,weatherlink.com 1.10,2013-02-23 05:15:00,
2013-02-23 00:20:00,29.5,23.8,30.27,SW,223,0.0,0.0,79,0.00,,CLR,0.00,VWS V14.01,2013-02-23 05:20:00,
2013-02-23 00:25:00,29.4,24.0,30.27,SW,222,0.0,0.0,80,0.00,,CLR,0.00,VWS V14.01,2013-02-23 05:25:00,
2013-02-23 00:30:00,29.3,23.9,30.27,SW,222,0.0,0.0,80,0.00,,CLR,0.00,VWS V14.01,2013-02-23 05:30:00,
2013-02-23 00:35:00,28.9,23.5,30.27,SW,222,0.0,0.0,80,0.00,,CLR,0.00,VWS V14.01,2013-02-23 05:35:00,
2013-02-23 00:40:00,28.7,23.6,30.27,SW,222,0.0,0.0,81,0.00,,CLR,0.00,VWS V14.01,2013-02-23 05:40:00,
2013-02-23 00:45:00,28.4,23.3,30.27,SW,222,0.0,0.0,81,0.00,,CLR,0.00,VWS V14.01,2013-02-23 05:45:00,
2013-02-23 00:50:00,28.1,23.3,30.26,SW,222,0.0,0.0,82,0.00,,CLR,0.00,VWS V14.01,2013-02-23 05:50:00,
2013-02-23 00:55:00,27.6,22.8,30.26,SW,222,0.0,0.0,82,0.00,,CLR,0.00,VWS V14.01,2013-02-23 05:55:00,
2013-02-23 01:00:00,27.3,23.1,30.26,SW,222,0.0,0.0,84,0.00,,CLR,0.00,VWS V14.01,2013-02-23 06:00:00,
2013-02-23 01:05:00,27.0,22.8,30.26,SW,222,0.0,0.0,84,0.00,,CLR,0.00,VWS V14.01,2013-02-23 06:05:00,
2013-02-23 01:10:00,26.8,22.9,30.26,SW,222,0.0,0.0,85,0.00,,CLR,0.00,VWS V14.01,2013-02-23 06:10:00,
2013-02-23 01:15:00,26.6,22.7,30.26,SW,222,0.0,0.0,85,0.00,,CLR,0.00,VWS V14.01,2013-02-23 06:15:00,
2013-02-23 01:20:00,26.7,23.1,30.26,SW,222,0.0,0.0,86,0.00,,CLR,0.00,VWS V14.01,2013-02-23 06:20:00,
2013-02-23 01:25:00,26.9,23.3,30.26,SW,222,0.0,0.0,86,0.00,,CLR,0.00,VWS V14.01,2013-02-23 06:25:00,
2013-02-23 01:30:00,27.1,23.5,30.26,SW,221,0.0,0.0,86,0.00,,CLR,0.00,VWS V14.01,2013-02-23 06:30:00,
2013-02-23 01:35:00,27.5,23.9,30.26,SW,222,0.0,0.0,86,0.00,,CLR,0.00,VWS V14.01,2013-02-23 06:35:00,
2013-02-23 01:40:00,27.6,24.0,30.25,SW,222,0.0,0.0,86,0.00,,CLR,0.00,VWS V14.01,2013-02-23 06:40:00,
2013-02-23 01:45:00,27.6,24.0,30.25,SW,222,0.0,0.0,86,0.00,,CLR,0.00,VWS V14.01,2013-02-23 06:45:00,
2013-02-23 01:50:00,27.6,24.0,30.25,SW,223,0.0,0.0,86,0.00,,CLR,0.00,VWS V14.01,2013-02-23 06:50:00,
2013-02-23 01:55:00,27.7,24.1,30.25,SW,222,0.0,0.0,86,0.00,,CLR,0.00,VWS V14.01,2013-02-23 06:55:00,
2013-02-23 02:00:00,28.0,24.1,30.25,SW,222,0.0,0.0,85,0.00,,CLR,0.00,VWS V14.01,2013-02-23 07:00:00,
2013-02-23 02:05:00,28.1,24.2,30.25,SW,222,0.0,0.0,85,0.00,,CLR,0.00,VWS V14.01,2013-02-23 07:05:00,
2013-02-23 02:10:00,28.1,24.2,30.25,SW,222,0.0,0.0,85,0.00,,CLR,0.00,VWS V14.01,2013-02-23 07:10:00,
2013-02-23 02:15:00,28.1,24.2,30.25,SW,222,0.0,0.0,85,0.00,,CLR,0.00,VWS V14.01,2013-02-23 07:15:00,
2013-02-23 02:20:00,28.1,24.2,30.25,SW,222,0.0,0.0,85,0.00,,CLR,0.00,VWS V14.01,2013-02-23 07:20:00,
2013-02-23 02:25:00,28.2,24.6,30.25,SW,223,0.0,0.0,86,0.00,,CLR,0.00,VWS V14.01,2013-02-23 07:25:00,
2013-02-23 02:30:00,28.3,24.4,30.25,SW,222,0.0,0.0,85,0.00,,CLR,0.00,VWS V14.01,2013-02-23 07:30:00,
2013-02-23 02:35:00,28.5,24.6,30.25,SW,222,0.0,0.0,85,0.00,,CLR,0.00,VWS V14.01,2013-02-23 07:35:00,
2013-02-23 02:40:00,28.6,24.4,30.25,SW,222,0.0,0.0,84,0.00,,CLR,0.00,VWS V14.01,2013-02-23 07:40:00,
2013-02-23 02:45:00,28.8,24.6,30.25,SW,222,0.0,0.0,84,0.00,,CLR,0.00,VWS V14.01,2013-02-23 07:45:00,
2013-02-23 02:50:00,28.9,24.4,30.25,SW,222,0.0,0.0,83,0.00,,CLR,0.00,VWS V14.01,2013-02-23 07:50:00,
2013-02-23 02:55:00,29.0,24.5,30.25,SW,222,0.0,0.0,83,0.00,,CLR,0.00,VWS V14.01,2013-02-23 07:55:00,
2013-02-23 03:00:00,29.0,24.5,30.24,SW,222,0.0,0.0,83,0.00,,CLR,0.00,VWS V14.01,2013-02-23 08:00:00,
2013-02-23 03:05:00,29.0,24.8,30.24,SW,222,0.0,0.0,84,0.00,,CLR,0.00,VWS V14.01,2013-02-23 08:05:00,
2013-02-23 03:10:00,29.0,24.8,30.24,SW,222,0.0,0.0,84,0.00,,CLR,0.00,VWS V14.01,2013-02-23 08:10:00,
2013-02-23 03:15:00,28.9,24.7,30.23,SW,223,0.0,0.0,84,0.00,,CLR,0.00,VWS V14.01,2013-02-23 08:15:00,
2013-02-23 03:20:00,29.0,24.8,30.23,SW,222,0.0,0.0,84,0.00,,CLR,0.00,VWS V14.01,2013-02-23 08:20:00,
2013-02-23 03:25:00,29.0,25.1,30.23,SW,222,0.0,0.0,85,0.00,,CLR,0.00,VWS V14.01,2013-02-23 08:25:00,
2013-02-23 03:30:00,29.0,25.1,30.23,SW,222,0.0,0.0,85,0.00,,CLR,0.00,VWS V14.01,2013-02-23 08:30:00,
2013-02-23 03:35:00,28.9,25.0,30.23,SW,222,0.0,0.0,85,0.00,,CLR,0.00,VWS V14.01,2013-02-23 08:35:00,
2013-02-23 03:40:00,28.9,25.0,30.23,SW,222,0.0,0.0,85,0.00,,CLR,0.00,VWS V14.01,2013-02-23 08:40:00,
2013-02-23 03:45:00,29.0,25.4,30.23,SW,222,0.0,0.0,86,0.00,,CLR,0.00,VWS V14.01,2013-02-23 08:45:00,
2013-02-23 03:50:00,29.0,25.1,30.23,SW,222,0.0,0.0,85,0.00,,CLR,0.00,VWS V14.01,2013-02-23 08:50:00,
2013-02-23 03:55:00,29.0,25.1,30.23,SW,222,0.0,0.0,85,0.00,,CLR,0.00,VWS V14.01,2013-02-23 08:55:00,
2013-02-23 04:00:00,29.1,25.4,30.22,SW,222,0.0,0.0,86,0.00,,CLR,0.00,VWS V14.01,2013-02-23 09:00:00,
2013-02-23 04:05:00,29.1,25.2,30.23,SW,222,0.0,0.0,85,0.00,,CLR,0.00,VWS V14.01,2013-02-23 09:05:00,
2013-02-23 04:10:00,29.1,25.2,30.22,SW,222,0.0,0.0,85,0.00,,CLR,0.00,VWS V14.01,2013-02-23 09:10:00,
2013-02-23 04:15:00,29.2,25.5,30.22,SW,222,0.0,0.0,86,0.00,,CLR,0.00,VWS V14.01,2013-02-23 09:15:00,
2013-02-23 04:20:00,29.2,25.3,30.22,SW,222,0.0,0.0,85,0.00,,CLR,0.00,VWS V14.01,2013-02-23 09:20:00,
2013-02-23 04:25:00,29.2,25.3,30.22,SW,222,0.0,0.0,85,0.00,,CLR,0.00,VWS V14.01,2013-02-23 09:25:00,
2013-02-23 04:30:00,29.1,25.2,30.21,SW,222,0.0,0.0,85,0.00,,CLR,0.00,VWS V14.01,2013-02-23 09:30:00,
2013-02-23 04:35:00,29.1,25.2,30.22,SW,222,0.0,0.0,85,0.00,,CLR,0.00,VWS V14.01,2013-02-23 09:35:00,
2013-02-23 04:40:00,29.1,24.9,30.21,SW,222,0.0,0.0,84,0.00,,CLR,0.00,VWS V14.01,2013-02-23 09:40:00,
2013-02-23 04:45:00,29.2,25.0,30.21,SW,222,0.0,0.0,84,0.00,,CLR,0.00,VWS V14.01,2013-02-23 09:45:00,
2013-02-23 04:50:00,29.2,25.0,30.21,SW,222,0.0,0.0,84,0.00,,CLR,0.00,VWS V14.01,2013-02-23 09:50:00,
2013-02-23 04:55:00,29.2,25.0,30.21,SW,222,0.0,0.0,84,0.00,,CLR,0.00,VWS V14.01,2013-02-23 09:55:00,
2013-02-23 05:00:00,29.2,25.0,30.21,SW,222,0.0,0.0,84,0.00,,CLR,0.00,VWS V14.01,2013-02-23 10:00:00,
2013-02-23 05:05:00,29.2,25.0,30.21,SW,222,0.0,0.0,84,0.00,,CLR,0.00,VWS V14.01,2013-02-23 10:05:00,
2013-02-23 05:10:00,29.2,25.0,30.22,SW,222,0.0,0.0,84,0.00,,CLR,0.00,VWS V14.01,2013-02-23 10:10:00,
2013-02-23 05:15:00,29.2,25.0,30.21,SW,222,0.0,0.0,84,0.00,,CLR,0.00,VWS V14.01,2013-02-23 10:15:00,
2013-02-23 05:20:00,29.3,25.1,30.21,SW,222,0.0,0.0,84,0.00,,CLR,0.00,VWS V14.01,2013-02-23 10:20:00,
2013-02-23 05:25:00,29.3,25.4,30.21,SW,222,0.0,0.0,85,0.00,,CLR,0.00,VWS V14.01,2013-02-23 10:25:00,
2013-02-23 05:30:00,29.4,25.5,30.21,SW,222,0.0,0.0,85,0.00,,CLR,0.00,VWS V14.01,2013-02-23 10:30:00,
2013-02-23 05:35:00,29.4,25.5,30.21,SW,222,0.0,0.0,85,0.00,,CLR,0.00,VWS V14.01,2013-02-23 10:35:00,
2013-02-23 05:40:00,29.4,25.5,30.21,SW,222,0.0,0.0,85,0.00,,CLR,0.00,VWS V14.01,2013-02-23 10:40:00,
2013-02-23 05:45:00,29.5,25.6,30.21,SW,221,0.0,0.0,85,0.00,,CLR,0.00,VWS V14.01,2013-02-23 10:45:00,
2013-02-23 05:50:00,29.4,25.5,30.21,SW,222,0.0,0.0,85,0.00,,CLR,0.00,VWS V14.01,2013-02-23 10:50:00,
2013-02-23 05:55:00,29.4,25.5,30.21,SW,222,0.0,0.0,85,0.00,,CLR,0.00,VWS V14.01,2013-02-23 10:55:00,
2013-02-23 06:00:00,29.6,25.9,30.21,SW,222,0.0,0.0,86,0.00,,CLR,0.00,VWS V14.01,2013-02-23 11:00:00,
2013-02-23 06:05:00,29.6,25.6,30.21,SW,222,0.0,0.0,85,0.00,,CLR,0.00,VWS V14.01,2013-02-23 11:05:00,
2013-02-23 06:10:00,29.4,25.5,30.21,SW,222,0.0,0.0,85,0.00,,CLR,0.00,VWS V14.01,2013-02-23 11:10:00,
2013-02-23 06:15:00,29.4,25.5,30.20,SW,221,0.0,0.0,85,0.00,,CLR,0.00,VWS V14.01,2013-02-23 11:15:00,
2013-02-23 06:20:00,29.3,25.4,30.20,SW,222,0.0,0.0,85,0.00,,CLR,0.00,VWS V14.01,2013-02-23 11:20:00,
2013-02-23 06:25:00,29.3,25.4,30.20,SW,222,0.0,0.0,85,0.00,,CLR,0.00,VWS V14.01,2013-02-23 11:25:00,
2013-02-23 06:30:00,29.3,25.4,30.20,SW,222,0.0,0.0,85,0.00,,CLR,0.00,VWS V14.01,2013-02-23 11:30:00,
2013-02-23 06:35:00,29.3,25.6,30.20,SW,222,0.0,0.0,86,0.00,,CLR,0.00,VWS V14.01,2013-02-23 11:35:00,
2013-02-23 06:40:00,29.5,25.8,30.19,SW,222,0.0,0.0,86,0.00,,CLR,0.00,VWS V14.01,2013-02-23 11:40:00,
2013-02-23 06:45:00,29.5,25.8,30.19,SW,222,0.0,0.0,86,0.00,,CLR,0.00,VWS V14.01,2013-02-23 11:45:00,
2013-02-23 06:50:00,29.4,26.0,30.19,SW,222,0.0,0.0,85,0.00,,,0.00,weatherlink.com 1.10,2013-02-23 11:50:00,
2013-02-23 06:55:00,29.4,25.5,30.20,SW,222,0.0,0.0,85,0.00,,CLR,0.00,VWS V14.01,2013-02-23 11:55:00,
2013-02-23 07:00:00,29.6,25.9,30.20,SW,222,0.0,0.0,86,0.00,,CLR,0.00,VWS V14.01,2013-02-23 12:00:00,
2013-02-23 07:05:00,29.7,26.0,30.20,SW,222,0.0,0.0,86,0.00,,CLR,0.00,VWS V14.01,2013-02-23 12:05:00,
2013-02-23 07:10:00,29.9,26.0,30.19,SW,222,0.0,0.0,85,0.00,,CLR,0.00,VWS V14.01,2013-02-23 12:10:00,
2013-02-23 07:15:00,30.1,26.4,30.19,SW,222,0.0,0.0,86,0.00,,CLR,0.00,VWS V14.01,2013-02-23 12:15:00,
2013-02-23 07:20:00,30.1,26.1,30.19,SW,222,0.0,0.0,85,0.00,,CLR,0.00,VWS V14.01,2013-02-23 12:20:00,
2013-02-23 07:25:00,30.2,26.2,30.19,SW,222,0.0,0.0,85,0.00,,CLR,0.00,VWS V14.01,2013-02-23 12:25:00,
2013-02-23 07:30:00,30.3,26.1,30.19,SW,222,0.0,0.0,84,0.00,,CLR,0.00,VWS V14.01,2013-02-23 12:30:00,
2013-02-23 07:35:00,30.4,26.1,30.19,SW,222,0.0,0.0,84,0.00,,CLR,0.00,VWS V14.01,2013-02-23 12:35:00,
2013-02-23 07:40:00,30.5,26.2,30.19,SW,222,0.0,0.0,84,0.00,,CLR,0.00,VWS V14.01,2013-02-23 12:40:00,
2013-02-23 07:45:00,30.5,26.2,30.19,SE,124,0.0,0.0,84,0.00,,CLR,0.00,VWS V14.01,2013-02-23 12:45:00,
2013-02-23 07:50:00,30.7,26.5,30.20,SE,124,0.0,0.0,84,0.00,,CLR,0.00,VWS V14.01,2013-02-23 12:50:00,
2013-02-23 07:55:00,30.9,26.6,30.19,SE,124,0.0,0.0,84,0.00,,CLR,0.00,VWS V14.01,2013-02-23 12:55:00,
2013-02-23 08:00:00,30.9,26.4,30.19,ESE,115,0.0,0.0,83,0.00,,CLR,0.00,VWS V14.01,2013-02-23 13:00:00,
2013-02-23 08:05:00,31.0,26.5,30.19,ESE,114,0.0,0.0,83,0.00,,CLR,0.00,VWS V14.01,2013-02-23 13:05:00,
2013-02-23 08:10:00,31.2,26.4,30.19,SE,136,1.0,2.0,82,0.00,,CLR,0.00,VWS V14.01,2013-02-23 13:10:00,
2013-02-23 08:15:00,31.2,26.4,30.19,ESE,109,1.0,1.0,82,0.00,,CLR,0.00,VWS V14.01,2013-02-23 13:15:00,
2013-02-23 08:20:00,31.3,26.5,30.19,ESE,114,0.0,2.0,82,0.00,,CLR,0.00,VWS V14.01,2013-02-23 13:20:00,
2013-02-23 08:25:00,31.5,26.6,30.18,ESE,120,0.0,1.0,82,0.00,,CLR,0.00,VWS V14.01,2013-02-23 13:25:00,
2013-02-23 08:30:00,31.7,26.8,30.19,SE,124,1.0,1.0,82,0.00,,CLR,0.00,VWS V14.01,2013-02-23 13:30:00,
2013-02-23 08:35:00,31.9,26.7,30.19,ESE,102,0.0,2.0,81,0.00,,CLR,0.00,VWS V14.01,2013-02-23 13:35:00,
2013-02-23 08:40:00,32.1,26.9,30.18,ESE,104,0.0,1.0,81,0.00,,CLR,0.00,VWS V14.01,2013-02-23 13:40:00,
2013-02-23 08:45:00,32.3,27.1,30.18,East,99,0.0,1.0,81,0.00,,CLR,0.00,VWS V14.01,2013-02-23 13:45:00,
2013-02-23 08:50:00,32.7,27.5,30.18,East,99,0.0,0.0,81,0.00,,CLR,0.00,VWS V14.01,2013-02-23 13:50:00,
2013-02-23 08:55:00,32.9,27.4,30.18,SE,136,1.0,3.0,80,0.00,,CLR,0.00,VWS V14.01,2013-02-23 13:55:00,
2013-02-23 09:00:00,33.1,27.6,30.18,SSE,152,0.0,4.0,80,0.00,,CLR,0.00,VWS V14.01,2013-02-23 14:00:00,
2013-02-23 09:05:00,33.3,27.8,30.17,East,84,1.0,3.0,80,0.00,,CLR,0.00,VWS V14.01,2013-02-23 14:05:00,
2013-02-23 09:10:00,33.5,28.0,30.17,SE,127,1.0,3.0,80,0.00,,CLR,0.00,VWS V14.01,2013-02-23 14:10:00,
2013-02-23 09:15:00,33.7,28.2,30.17,ESE,111,4.0,7.0,80,0.00,,CLR,0.00,VWS V14.01,2013-02-23 14:15:00,
2013-02-23 09:20:00,33.8,28.0,30.17,SSE,167,5.0,5.0,79,0.00,,CLR,0.00,VWS V14.01,2013-02-23 14:20:00,
2013-02-23 09:25:00,33.9,28.1,30.17,SSE,156,7.0,8.0,79,0.00,,CLR,0.00,VWS V14.01,2013-02-23 14:25:00,
2013-02-23 09:30:00,34.0,28.2,30.17,ENE,77,4.0,6.0,79,0.00,,CLR,0.00,VWS V14.01,2013-02-23 14:30:00,
2013-02-23 09:35:00,34.1,28.3,30.17,ESE,118,2.0,5.0,79,0.00,,CLR,0.00,VWS V14.01,2013-02-23 14:35:00,
2013-02-23 09:40:00,34.1,28.3,30.17,SSW,212,0.0,6.0,79,0.00,,CLR,0.00,VWS V14.01,2013-02-23 14:40:00,
2013-02-23 09:45:00,34.3,28.5,30.17,East,94,1.0,2.0,79,0.00,,CLR,0.00,VWS V14.01,2013-02-23 14:45:00,
2013-02-23 09:50:00,34.4,28.6,30.16,ESE,121,2.0,4.0,79,0.00,,CLR,0.00,VWS V14.01,2013-02-23 14:50:00,
2013-02-23 09:55:00,34.5,28.4,30.16,ESE,121,2.0,6.0,78,0.00,,CLR,0.00,VWS V14.01,2013-02-23 14:55:00,
2013-02-23 10:00:00,34.7,28.5,30.16,ESE,111,6.0,6.0,78,0.00,,CLR,0.00,VWS V14.01,2013-02-23 15:00:00,
2013-02-23 10:05:00,34.7,28.5,30.16,East,100,1.0,8.0,78,0.00,,CLR,0.00,VWS V14.01,2013-02-23 15:05:00,
2013-02-23 10:10:00,34.7,28.5,30.16,ESE,121,3.0,5.0,78,0.00,,CLR,0.00,VWS V14.01,2013-02-23 15:10:00,
2013-02-23 10:15:00,34.8,28.6,30.16,SSE,153,4.0,6.0,78,0.00,,CLR,0.00,VWS V14.01,2013-02-23 15:15:00,
2013-02-23 10:20:00,34.9,28.8,30.15,SE,135,0.0,5.0,78,0.00,,CLR,0.00,VWS V14.01,2013-02-23 15:20:00,
2013-02-23 10:25:00,35.1,28.6,30.15,ESE,108,4.0,7.0,77,0.00,,CLR,0.00,VWS V14.01,2013-02-23 15:25:00,
2013-02-23 10:30:00,35.1,28.6,30.15,SSE,162,4.0,5.0,77,0.00,,CLR,0.00,VWS V14.01,2013-02-23 15:30:00,
2013-02-23 10:35:00,35.3,28.8,30.15,East,101,2.0,5.0,77,0.00,,CLR,0.00,VWS V14.01,2013-02-23 15:35:00,
2013-02-23 10:40:00,35.3,28.8,30.14,ESE,117,5.0,7.0,77,0.00,,CLR,0.00,VWS V14.01,2013-02-23 15:40:00,
2013-02-23 10:45:00,35.5,29.0,30.14,South,184,2.0,6.0,77,0.00,,CLR,0.00,VWS V14.01,2013-02-23 15:45:00,
2013-02-23 10:50:00,35.6,29.1,30.14,ESE,104,2.0,5.0,77,0.00,,CLR,0.00,VWS V14.01,2013-02-23 15:50:00,
2013-02-23 10:55:00,35.7,28.9,30.14,SE,131,3.0,7.0,76,0.00,,CLR,0.00,VWS V14.01,2013-02-23 15:55:00,
2013-02-23 11:00:00,35.7,28.9,30.14,East,93,5.0,6.0,76,0.00,,CLR,0.00,VWS V14.01,2013-02-23 16:00:00,
2013-02-23 11:05:00,36.0,29.2,30.14,SE,129,4.0,4.0,76,0.00,,CLR,0.00,VWS V14.01,2013-02-23 16:05:00,
2013-02-23 11:10:00,36.0,28.9,30.13,ESE,111,1.0,8.0,75,0.00,,CLR,0.00,VWS V14.01,2013-02-23 16:10:00,
2013-02-23 11:15:00,36.1,29.0,30.13,SE,134,1.0,9.0,75,0.00,,CLR,0.00,VWS V14.01,2013-02-23 16:15:00,
2013-02-23 11:20:00,36.2,28.7,30.12,ESE,120,2.0,6.0,74,0.00,,CLR,0.00,VWS V14.01,2013-02-23 16:20:00,
2013-02-23 11:25:00,36.4,28.9,30.12,ESE,111,3.0,5.0,74,0.00,,CLR,0.00,VWS V14.01,2013-02-23 16:25:00,
2013-02-23 11:30:00,36.5,29.0,30.12,ESE,122,3.0,6.0,74,0.00,,CLR,0.00,VWS V14.01,2013-02-23 16:30:00,
2013-02-23 11:35:00,36.6,29.1,30.12,SE,127,0.0,4.0,74,0.00,,CLR,0.00,VWS V14.01,2013-02-23 16:35:00,
2013-02-23 11:40:00,36.8,29.3,30.12,ESE,120,7.0,11.0,74,0.00,,CLR,0.00,VWS V14.01,2013-02-23 16:40:00,
2013-02-23 11:45:00,36.6,28.8,30.12,SE,131,3.0,9.0,73,0.00,,CLR,0.00,VWS V14.01,2013-02-23 16:45:00,
2013-02-23 11:50:00,36.6,29.1,30.11,SE,145,3.0,8.0,74,0.00,,CLR,0.00,VWS V14.01,2013-02-23 16:50:00,
2013-02-23 11:55:00,36.8,29.3,30.11,East,81,3.0,6.0,74,0.00,,CLR,0.00,VWS V14.01,2013-02-23 16:55:00,
2013-02-23 12:00:00,36.7,28.9,30.11,ESE,110,3.0,12.0,73,0.00,,CLR,0.00,VWS V14.01,2013-02-23 17:00:00,
2013-02-23 12:05:00,36.8,29.3,30.10,SSW,207,2.0,7.0,74,0.00,,CLR,0.00,VWS V14.01,2013-02-23 17:05:00,
2013-02-23 12:10:00,36.9,29.1,30.10,East,86,9.0,12.0,73,0.00,,CLR,0.00,VWS V14.01,2013-02-23 17:10:00,
2013-02-23 12:15:00,36.9,29.1,30.10,SE,132,3.0,10.0,73,0.00,,CLR,0.00,VWS V14.01,2013-02-23 17:15:00,
2013-02-23 12:20:00,36.8,29.0,30.10,ESE,123,11.0,12.0,73,0.00,,CLR,0.00,VWS V14.01,2013-02-23 17:20:00,
2013-02-23 12:25:00,36.8,29.3,30.09,ESE,120,2.0,6.0,74,0.00,,CLR,0.00,VWS V14.01,2013-02-23 17:25:00,
2013-02-23 12:30:00,36.8,29.3,30.09,ESE,123,2.0,7.0,74,0.00,,CLR,0.00,VWS V14.01,2013-02-23 17:30:00,
2013-02-23 12:35:00,36.9,29.4,30.09,ESE,113,6.0,10.0,74,0.00,,CLR,0.00,VWS V14.01,2013-02-23 17:35:00,
2013-02-23 12:40:00,37.1,29.6,30.08,ESE,116,3.0,4.0,74,0.00,,CLR,0.00,VWS V14.01,2013-02-23 17:40:00,
2013-02-23 12:45:00,37.2,29.4,30.08,East,86,4.0,6.0,73,0.00,,CLR,0.00,VWS V14.01,2013-02-23 17:45:00,
2013-02-23 12:50:00,37.2,29.4,30.08,SSE,149,8.0,8.0,73,0.00,,CLR,0.00,VWS V14.01,2013-02-23 17:50:00,
2013-02-23 12:55:00,37.2,29.4,30.08,SE,129,3.0,9.0,73,0.00,,CLR,0.00,VWS V14.01,2013-02-23 17:55:00,
2013-02-23 13:00:00,37.2,29.4,30.08,NE,44,4.0,8.0,73,0.00,,CLR,0.00,VWS V14.01,2013-02-23 18:00:00,
2013-02-23 13:05:00,37.2,29.4,30.08,ESE,108,2.0,8.0,73,0.00,,CLR,0.00,VWS V14.01,2013-02-23 18:05:00,
2013-02-23 13:10:00,37.1,29.6,30.08,SSE,155,1.0,6.0,74,0.00,,CLR,0.00,VWS V14.01,2013-02-23 18:10:00,
2013-02-23 13:15:00,37.2,29.7,30.08,SE,145,0.0,4.0,74,0.00,,CLR,0.00,VWS V14.01,2013-02-23 18:15:00,
2013-02-23 13:20:00,37.4,29.5,30.08,SSE,160,4.0,7.0,73,0.00,,CLR,0.00,VWS V14.01,2013-02-23 18:20:00,
2013-02-23 13:25:00,37.3,29.5,30.08,SE,143,2.0,4.0,73,0.00,,CLR,0.00,VWS V14.01,2013-02-23 18:25:00,
2013-02-23 13:30:00,37.3,29.5,30.08,East,84,6.0,7.0,73,0.00,,CLR,0.00,VWS V14.01,2013-02-23 18:30:00,
2013-02-23 13:35:00,37.3,29.8,30.08,East,92,3.0,3.0,74,0.00,,CLR,0.00,VWS V14.01,2013-02-23 18:35:00,
2013-02-23 13:40:00,37.4,29.5,30.08,East,88,2.0,5.0,73,0.00,,CLR,0.00,VWS V14.01,2013-02-23 18:40:00,
2013-02-23 13:45:00,37.5,30.0,30.08,SE,127,1.0,2.0,74,0.00,,CLR,0.00,VWS V14.01,2013-02-23 18:45:00,
2013-02-23 13:50:00,37.6,29.7,30.07,SE,134,0.0,4.0,73,0.00,,CLR,0.00,VWS V14.01,2013-02-23 18:50:00,
2013-02-23 13:55:00,37.6,29.7,30.07,ENE,64,1.0,3.0,73,0.00,,CLR,0.00,VWS V14.01,2013-02-23 18:55:00,
2013-02-23 14:00:00,37.5,29.6,30.08,ESE,121,1.0,5.0,73,0.00,,CLR,0.00,VWS V14.01,2013-02-23 19:00:00,
2013-02-23 14:05:00,37.6,29.7,30.08,East,94,1.0,6.0,73,0.00,,CLR,0.00,VWS V14.01,2013-02-23 19:05:00,
2013-02-23 14:10:00,37.6,29.7,30.08,SE,143,2.0,5.0,73,0.00,,CLR,0.00,VWS V14.01,2013-02-23 19:10:00,
2013-02-23 14:15:00,37.5,29.6,30.07,SE,136,3.0,6.0,73,0.00,,CLR,0.00,VWS V14.01,2013-02-23 19:15:00,
2013-02-23 14:20:00,37.5,30.0,30.07,East,101,1.0,2.0,74,0.00,,CLR,0.00,VWS V14.01,2013-02-23 19:20:00,
2013-02-23 14:25:00,37.5,30.0,30.06,ENE,77,2.0,9.0,74,0.00,,CLR,0.00,VWS V14.01,2013-02-23 19:25:00,
2013-02-23 14:30:00,37.3,29.8,30.06,SSE,148,5.0,7.0,74,0.00,,CLR,0.00,VWS V14.01,2013-02-23 19:30:00,
2013-02-23 14:35:00,37.4,30.2,30.06,ESE,117,2.0,5.0,75,0.00,,CLR,0.00,VWS V14.01,2013-02-23 19:35:00,
2013-02-23 14:40:00,37.5,30.0,30.06,ESE,118,5.0,5.0,74,0.00,,CLR,0.00,VWS V14.01,2013-02-23 19:40:00,
2013-02-23 14:45:00,37.3,30.1,30.05,SE,132,1.0,9.0,75,0.00,,CLR,0.00,VWS V14.01,2013-02-23 19:45:00,
2013-02-23 14:50:00,37.2,30.4,30.06,SE,138,1.0,6.0,76,0.00,,CLR,0.00,VWS V14.01,2013-02-23 19:50:00,
2013-02-23 14:55:00,37.2,30.4,30.06,SSW,197,0.0,5.0,76,0.00,,CLR,0.00,VWS V14.01,2013-02-23 19:55:00,
2013-02-23 15:00:00,37.2,30.4,30.06,East,97,3.0,9.0,76,0.00,,CLR,0.00,VWS V14.01,2013-02-23 20:00:00,
2013-02-23 15:05:00,37.1,30.6,30.06,ESE,109,2.0,5.0,77,0.00,,CLR,0.00,VWS V14.01,2013-02-23 20:05:00,
2013-02-23 15:10:00,37.2,30.7,30.06,SSE,149,5.0,5.0,77,0.00,,CLR,0.00,VWS V14.01,2013-02-23 20:10:00,
2013-02-23 15:15:00,37.1,30.6,30.06,South,173,1.0,6.0,77,0.00,,CLR,0.00,VWS V14.01,2013-02-23 20:15:00,
2013-02-23 15:20:00,37.0,30.5,30.05,SE,135,5.0,5.0,77,0.00,,CLR,0.00,VWS V14.01,2013-02-23 20:20:00,
2013-02-23 15:25:00,36.9,30.4,30.04,SE,127,5.0,9.0,77,0.00,,CLR,0.00,VWS V14.01,2013-02-23 20:25:00,
2013-02-23 15:30:00,36.9,30.7,30.04,SE,141,5.0,7.0,78,0.00,,CLR,0.00,VWS V14.01,2013-02-23 20:30:00,
2013-02-23 15:35:00,36.8,30.6,30.04,ESE,111,3.0,6.0,78,0.00,,CLR,0.00,VWS V14.01,2013-02-23 20:35:00,
2013-02-23 15:40:00,36.8,30.9,30.04,SE,125,2.0,3.0,79,0.00,,CLR,0.00,VWS V14.01,2013-02-23 20:40:00,
2013-02-23 15:45:00,36.8,30.9,30.03,SE,127,3.0,7.0,79,0.00,,CLR,0.00,VWS V14.01,2013-02-23 20:45:00,
2013-02-23 15:50:00,36.7,30.8,30.03,East,91,3.0,7.0,79,0.00,,CLR,0.00,VWS V14.01,2013-02-23 20:50:00,
2013-02-23 15:55:00,36.6,31.0,30.03,East,91,3.0,4.0,80,0.00,,CLR,0.00,VWS V14.01,2013-02-23 20:55:00,
2013-02-23 16:00:00,36.6,31.0,30.02,SE,145,1.0,6.0,80,0.00,,CLR,0.00,VWS V14.01,2013-02-23 21:00:00,
2013-02-23 16:05:00,36.6,31.3,30.02,SE,124,3.0,7.0,81,0.00,,CLR,0.00,VWS V14.01,2013-02-23 21:05:00,
2013-02-23 16:10:00,36.6,31.3,30.02,ESE,110,3.0,3.0,81,0.00,,CLR,0.00,VWS V14.01,2013-02-23 21:10:00,
2013-02-23 16:15:00,36.6,31.3,30.02,ESE,122,5.0,7.0,81,0.00,,CLR,0.00,VWS V14.01,2013-02-23 21:15:00,
2013-02-23 16:20:00,36.6,31.3,30.03,ESE,121,5.0,5.0,81,0.00,,CLR,0.00,VWS V14.01,2013-02-23 21:20:00,
2013-02-23 16:25:00,36.6,31.3,30.03,ESE,104,0.0,4.0,81,0.00,,CLR,0.00,VWS V14.01,2013-02-23 21:25:00,
2013-02-23 16:30:00,36.6,31.3,30.03,East,100,0.0,2.0,81,0.00,,CLR,0.00,VWS V14.01,2013-02-23 21:30:00,
2013-02-23 16:35:00,36.6,31.3,30.03,ESE,115,1.0,4.0,81,0.00,,CLR,0.00,VWS V14.01,2013-02-23 21:35:00,
2013-02-23 16:40:00,36.5,31.2,30.02,ESE,117,6.0,6.0,81,0.00,,CLR,0.00,VWS V14.01,2013-02-23 21:40:00,
2013-02-23 16:45:00,36.4,31.1,30.03,East,90,2.0,5.0,81,0.00,,CLR,0.00,VWS V14.01,2013-02-23 21:45:00,
2013-02-23 16:50:00,36.4,31.1,30.02,ESE,118,1.0,5.0,81,0.00,,CLR,0.00,VWS V14.01,2013-02-23 21:50:00,
2013-02-23 16:55:00,36.3,31.0,30.02,ESE,104,3.0,5.0,81,0.00,,CLR,0.00,VWS V14.01,2013-02-23 21:55:00,
2013-02-23 17:00:00,36.3,31.0,30.01,SE,127,6.0,6.0,81,0.00,,CLR,0.00,VWS V14.01,2013-02-23 22:00:00,
2013-02-23 17:05:00,36.2,31.2,30.01,East,89,2.0,4.0,82,0.00,,CLR,0.00,VWS V14.01,2013-02-23 22:05:00,
2013-02-23 17:10:00,36.2,31.2,30.01,ESE,118,1.0,5.0,82,0.00,,CLR,0.00,VWS V14.01,2013-02-23 22:10:00,
2013-02-23 17:15:00,36.1,31.1,30.02,SE,129,2.0,5.0,82,0.00,,CLR,0.00,VWS V14.01,2013-02-23 22:15:00,
2013-02-23 17:20:00,36.1,31.1,30.01,East,82,2.0,3.0,82,0.00,,CLR,0.00,VWS V14.01,2013-02-23 22:20:00,
2013-02-23 17:25:00,36.0,31.4,30.01,East,94,1.0,2.0,83,0.00,,CLR,0.00,VWS V14.01,2013-02-23 22:25:00,
2013-02-23 17:30:00,35.9,31.2,30.01,East,85,1.0,5.0,83,0.00,,CLR,0.00,VWS V14.01,2013-02-23 22:30:00,
2013-02-23 17:35:00,35.9,31.2,30.01,East,96,3.0,4.0,83,0.00,,CLR,0.00,VWS V14.01,2013-02-23 22:35:00,
2013-02-23 17:40:00,35.8,31.5,30.01,SE,132,3.0,4.0,84,0.00,,CLR,0.00,VWS V14.01,2013-02-23 22:40:00,
2013-02-23 17:45:00,35.8,31.5,30.01,ESE,104,0.0,3.0,84,0.00,,CLR,0.00,VWS V14.01,2013-02-23 22:45:00,
2013-02-23 17:50:00,35.7,31.4,30.01,ENE,75,2.0,3.0,84,0.00,,CLR,0.00,VWS V14.01,2013-02-23 22:50:00,
2013-02-23 17:55:00,35.6,31.5,30.00,East,96,4.0,7.0,85,0.00,,CLR,0.00,VWS V14.01,2013-02-23 22:55:00,
2013-02-23 18:00:00,35.3,31.5,30.00,SE,142,0.0,3.0,86,0.00,,CLR,0.00,VWS V14.01,2013-02-23 23:00:00,
2013-02-23 18:05:00,35.0,31.5,30.00,East,98,1.0,2.0,87,0.00,,CLR,0.00,VWS V14.01,2013-02-23 23:05:00,
2013-02-23 18:10:00,34.8,31.9,30.00,ESE,113,2.0,7.0,89,0.00,,CLR,0.00,VWS V14.01,2013-02-23 23:10:00,
2013-02-23 18:15:00,34.6,31.7,30.01,SE,135,1.0,4.0,89,0.00,,CLR,0.00,VWS V14.01,2013-02-23 23:15:00,
2013-02-23 18:20:00,34.4,31.8,30.01,ESE,118,3.0,6.0,90,0.00,,CLR,0.00,VWS V14.01,2013-02-23 23:20:00,
2013-02-23 18:25:00,34.3,32.0,30.00,SE,124,0.0,4.0,91,0.00,,CLR,0.00,VWS V14.01,2013-02-23 23:25:00,
2013-02-23 18:30:00,34.1,31.8,30.00,ESE,103,2.0,6.0,91,0.00,,CLR,0.00,VWS V14.01,2013-02-23 23:30:00,
2013-02-23 18:35:00,33.9,31.8,30.00,ESE,114,4.0,5.0,92,0.00,,CLR,0.00,VWS V14.01,2013-02-23 23:35:00,
2013-02-23 18:40:00,33.8,31.7,29.99,East,93,2.0,5.0,92,0.00,,CLR,0.00,VWS V14.01,2013-02-23 23:40:00,
2013-02-23 18:45:00,33.7,31.9,29.99,SE,127,1.0,4.0,93,0.00,,CLR,0.00,VWS V14.01,2013-02-23 23:45:00,
2013-02-23 18:50:00,33.6,31.8,29.99,ESE,120,2.0,6.0,93,0.00,,CLR,0.00,VWS V14.01,2013-02-23 23:50:00,
2013-02-23 18:55:00,33.5,31.7,29.99,East,101,2.0,5.0,93,0.00,,CLR,0.00,VWS V14.01,2013-02-23 23:55:00,
2013-02-23 19:00:00,33.4,31.9,29.99,East,96,4.0,5.0,94,0.00,,CLR,0.00,VWS V14.01,2013-02-24 00:00:00,
2013-02-23 19:05:00,33.3,31.8,29.99,ENE,69,2.0,6.0,94,0.00,,CLR,0.00,VWS V14.01,2013-02-24 00:05:00,
2013-02-23 19:10:00,33.3,31.8,29.99,ESE,122,4.0,7.0,94,0.00,,CLR,0.00,VWS V14.01,2013-02-24 00:10:00,
2013-02-23 19:15:00,33.2,31.7,29.99,SE,135,2.0,2.0,94,0.00,,CLR,0.00,VWS V14.01,2013-02-24 00:15:00,
2013-02-23 19:20:00,33.2,31.9,29.99,East,101,3.0,5.0,95,0.00,,CLR,0.00,VWS V14.01,2013-02-24 00:20:00,
2013-02-23 19:25:00,33.2,31.9,29.99,ESE,121,1.0,3.0,95,0.00,,CLR,0.00,VWS V14.01,2013-02-24 00:25:00,
2013-02-23 19:30:00,33.1,31.8,29.99,ESE,114,0.0,2.0,95,0.00,,CLR,0.00,VWS V14.01,2013-02-24 00:30:00,
2013-02-23 19:35:00,33.1,31.8,29.99,ESE,121,1.0,3.0,95,0.00,,CLR,0.00,VWS V14.01,2013-02-24 00:35:00,
2013-02-23 19:40:00,33.1,31.8,29.99,ESE,117,2.0,3.0,95,0.00,,CLR,0.00,VWS V14.01,2013-02-24 00:40:00,
2013-02-23 19:45:00,33.0,31.7,29.99,East,96,1.0,3.0,95,0.00,,CLR,0.00,VWS V14.01,2013-02-24 00:45:00,
2013-02-23 19:50:00,33.0,31.7,29.99,ESE,121,1.0,2.0,95,0.00,,CLR,0.00,VWS V14.01,2013-02-24 00:50:00,
2013-02-23 19:55:00,33.0,31.7,29.99,SE,138,1.0,2.0,95,0.00,,CLR,0.00,VWS V14.01,2013-02-24 00:55:00,
2013-02-23 20:00:00,33.0,32.0,29.99,ESE,114,2.0,4.0,96,0.00,,CLR,0.00,VWS V14.01,2013-02-24 01:00:00,
2013-02-23 20:05:00,32.9,31.6,29.98,ESE,109,1.0,3.0,95,0.00,,CLR,0.00,VWS V14.01,2013-02-24 01:05:00,
2013-02-23 20:10:00,32.8,31.8,29.97,East,92,0.0,2.0,96,0.00,,CLR,0.00,VWS V14.01,2013-02-24 01:10:00,
2013-02-23 20:15:00,32.8,31.8,29.97,ESE,104,0.0,2.0,96,0.00,,CLR,0.00,VWS V14.01,2013-02-24 01:15:00,
2013-02-23 20:20:00,32.7,31.7,29.97,NNE,32,0.0,2.0,96,0.00,,CLR,0.00,VWS V14.01,2013-02-24 01:20:00,
2013-02-23 20:25:00,32.7,31.7,29.97,NNE,30,0.0,0.0,96,0.00,,CLR,0.00,VWS V14.01,2013-02-24 01:25:00,
2013-02-23 20:30:00,32.7,31.7,29.97,SE,134,0.0,1.0,96,0.00,,CLR,0.00,VWS V14.01,2013-02-24 01:30:00,
2013-02-23 20:35:00,32.7,31.7,29.97,NE,53,0.0,1.0,96,0.00,,CLR,0.00,VWS V14.01,2013-02-24 01:35:00,
2013-02-23 20:40:00,32.7,31.7,29.97,NE,53,0.0,0.0,96,0.00,,CLR,0.00,VWS V14.01,2013-02-24 01:40:00,
2013-02-23 20:45:00,32.7,31.7,29.97,NE,54,0.0,0.0,96,0.00,,CLR,0.00,VWS V14.01,2013-02-24 01:45:00,
2013-02-23 20:50:00,32.6,31.6,29.97,NE,51,0.0,1.0,96,0.00,,CLR,0.00,VWS V14.01,2013-02-24 01:50:00,
2013-02-23 20:55:00,32.6,31.6,29.96,NE,51,1.0,1.0,96,0.00,,CLR,0.00,VWS V14.01,2013-02-24 01:55:00,
2013-02-23 21:00:00,32.6,31.6,29.96,NE,52,0.0,1.0,96,0.00,,CLR,0.00,VWS V14.01,2013-02-24 02:00:00,
2013-02-23 21:05:00,32.6,31.6,29.95,East,101,0.0,1.0,96,0.00,,CLR,0.00,VWS V14.01,2013-02-24 02:05:00,
2013-02-23 21:10:00,32.5,31.7,29.95,East,96,1.0,2.0,97,0.00,,CLR,0.00,VWS V14.01,2013-02-24 02:10:00,
2013-02-23 21:15:00,32.5,31.7,29.94,ESE,122,1.0,2.0,97,0.00,,CLR,0.00,VWS V14.01,2013-02-24 02:15:00,
2013-02-23 21:20:00,32.5,31.7,29.94,ESE,108,2.0,4.0,97,0.00,,CLR,0.00,VWS V14.01,2013-02-24 02:20:00,
2013-02-23 21:25:00,32.5,31.7,29.94,ESE,104,0.0,1.0,97,0.00,,CLR,0.00,VWS V14.01,2013-02-24 02:25:00,
2013-02-23 21:30:00,32.5,31.7,29.94,ENE,61,0.0,1.0,97,0.00,,CLR,0.00,VWS V14.01,2013-02-24 02:30:00,
2013-02-23 21:35:00,32.5,31.7,29.94,ESE,111,1.0,1.0,97,0.00,,CLR,0.00,VWS V14.01,2013-02-24 02:35:00,
2013-02-23 21:40:00,32.5,31.7,29.94,ESE,111,1.0,1.0,97,0.00,,CLR,0.00,VWS V14.01,2013-02-24 02:40:00,
2013-02-23 21:45:00,32.5,31.7,29.94,North,360,0.0,1.0,97,0.00,,CLR,0.00,VWS V14.01,2013-02-24 02:45:00,
2013-02-23 21:50:00,32.5,31.7,29.94,North,359,0.0,0.0,97,0.00,,CLR,0.00,VWS V14.01,2013-02-24 02:50:00,
2013-02-23 21:55:00,32.5,31.7,29.93,NE,37,0.0,1.0,97,0.00,,CLR,0.00,VWS V14.01,2013-02-24 02:55:00,
2013-02-23 22:00:00,32.5,31.7,29.93,NE,35,1.0,1.0,97,0.00,,CLR,0.00,VWS V14.01,2013-02-24 03:00:00,
2013-02-23 22:05:00,32.5,31.7,29.93,NE,43,0.0,2.0,97,0.00,,CLR,0.00,VWS V14.01,2013-02-24 03:05:00,
2013-02-23 22:10:00,32.5,31.7,29.93,NNE,31,1.0,2.0,97,0.00,,CLR,0.00,VWS V14.01,2013-02-24 03:10:00,
2013-02-23 22:15:00,32.5,31.7,29.92,NNE,27,0.0,3.0,97,0.00,,CLR,0.00,VWS V14.01,2013-02-24 03:15:00,
2013-02-23 22:20:00,32.5,31.7,29.92,NNE,21,0.0,2.0,97,0.00,,CLR,0.00,VWS V14.01,2013-02-24 03:20:00,
2013-02-23 22:25:00,32.5,31.7,29.92,NNE,13,0.0,1.0,97,0.00,,CLR,0.00,VWS V14.01,2013-02-24 03:25:00,
2013-02-23 22:30:00,32.5,31.7,29.92,North,355,0.0,1.0,97,0.00,,CLR,0.00,VWS V14.01,2013-02-24 03:30:00,
2013-02-23 22:35:00,32.5,31.7,29.92,North,356,0.0,1.0,97,0.00,,CLR,0.00,VWS V14.01,2013-02-24 03:35:00,
2013-02-23 22:40:00,32.5,31.7,29.92,NE,38,2.0,2.0,97,0.00,,CLR,0.00,VWS V14.01,2013-02-24 03:40:00,
2013-02-23 22:45:00,32.5,31.7,29.91,NNE,29,1.0,2.0,97,0.00,,CLR,0.00,VWS V14.01,2013-02-24 03:45:00,
2013-02-23 22:50:00,32.5,31.7,29.91,North,10,1.0,2.0,97,0.00,,CLR,0.00,VWS V14.01,2013-02-24 03:50:00,
2013-02-23 22:55:00,32.6,31.8,29.91,NNE,13,1.0,3.0,97,0.00,,CLR,0.00,VWS V14.01,2013-02-24 03:55:00,
2013-02-23 23:00:00,32.5,31.7,29.91,NNE,30,2.0,3.0,97,0.00,,CLR,0.00,VWS V14.01,2013-02-24 04:00:00,
2013-02-23 23:05:00,32.6,32.1,29.90,NE,53,0.0,3.0,98,0.00,,CLR,0.00,VWS V14.01,2013-02-24 04:05:00,
2013-02-23 23:10:00,32.6,32.1,29.90,North,8,4.0,4.0,98,0.00,,CLR,0.00,VWS V14.01,2013-02-24 04:10:00,
2013-02-23 23:15:00,32.6,32.1,29.90,NE,49,0.0,2.0,98,0.01,,CLR,0.01,VWS V14.01,2013-02-24 04:15:00,
2013-02-23 23:20:00,32.6,32.1,29.90,NNE,30,3.0,5.0,98,0.01,,CLR,0.01,VWS V14.01,2013-02-24 04:20:00,
2013-02-23 23:25:00,32.6,32.1,29.89,NNE,30,1.0,2.0,98,0.01,,CLR,0.01,VWS V14.01,2013-02-24 04:25:00,
2013-02-23 23:30:00,32.6,32.1,29.89,NE,46,2.0,4.0,98,0.01,,CLR,0.01,VWS V14.01,2013-02-24 04:30:00,
2013-02-23 23:35:00,32.5,32.0,29.89,NNE,30,2.0,4.0,98,0.01,,CLR,0.01,VWS V14.01,2013-02-24 04:35:00,
2013-02-23 23:40:00,32.5,32.0,29.88,NNE,14,3.0,5.0,98,0.02,,CLR,0.02,VWS V14.01,2013-02-24 04:40:00,
2013-02-23 23:45:00,32.5,32.0,29.88,NE,47,1.0,4.0,98,0.02,,CLR,0.02,VWS V14.01,2013-02-24 04:45:00,
2013-02-23 23:50:00,32.5,32.0,29.88,NE,39,3.0,4.0,98,0.02,,CLR,0.02,VWS V14.01,2013-02-24 04:50:00,
2013-02-23 23:55:00,32.5,32.0,29.88,NE,41,2.0,5.0,98,0.02,,CLR,0.02,VWS V14.01,2013-02-24 04:55:00,